This demonstration page uses our WeatherBlox Daily Observations layout. Learn more.

Left ArrowRight Arrow

39.01783, -85.05884

Hourly Observations for November 21, 2018

Temp ( °F °C ) Dew Point ( °F °C ) Humidity (%) Winds ( mph kmh ) Pressure ( in mb ) Visibility ( mi km ) Precip ( " mm )
12:52 am 00:52 Clear 30 -1.1 25 -3.9 82 82 W 10 17 30.25 1024 9 14 0.00 0.00
1:52 am 01:52 Partly Cloudy 29 -1.7 25 -3.9 85 85 WSW 12 19 30.25 1024 8 13 0.00 0.00
2:34 am 02:34 Cloudy 29 -1.7 25 -3.9 85 85 W 8 13 30.30 1026 8 13 0.00 0.00
2:52 am 02:52 Cloudy 30 -1.1 25 -3.9 82 82 W 10 17 30.26 1025 8 13 0.00 0.00
3:05 am 03:05 Cloudy 30 -1.1 25 -3.9 82 82 W 9 15 30.30 1026 8 13 0.00 0.00
3:31 am 03:31 Mostly Cloudy 29 -1.7 24 -4.4 82 82 W 13 20 30.30 1026 8 13 0.00 0.00
3:52 am 03:52 Mostly Cloudy 29 -1.7 24 -4.4 82 82 W 9 15 30.27 1025 8 13 0.00 0.00
4:52 am 04:52 Cloudy 29 -1.7 24 -4.4 82 82 SW 8 13 30.27 1025 7 11 0.00 0.00
5:52 am 05:52 Cloudy 30 -1.1 25 -3.9 82 82 SW 6 9 30.27 1025 7 11 0.00 0.00
6:36 am 06:36 Partly Cloudy 29 -1.7 24 -4.4 82 82 SSW 7 11 30.33 1027 7 11 0.00 0.00
6:52 am 06:52 Mostly Clear 29 -1.7 24 -4.4 82 82 SW 6 9 30.28 1025 7 11 0.00 0.00
7:52 am 07:52 Hazy 29 -1.7 24 -4.4 82 82 SSW 12 19 30.28 1025 6 10 0.00 0.00
8:52 am 08:52 Sunny 30 -1.1 25 -3.9 82 82 SSW 13 20 30.30 1026 7 11 0.00 0.00
9:52 am 09:52 Sunny 32 0 26 -3.3 79 79 SW 14 22 30.30 1026 8 13 0.00 0.00
10:52 am 10:52 Sunny 36 2.2 28 -2.2 73 73 SW 10 17 30.31 1026 10 16 0.00 0.00
11:52 am 11:52 Mostly Sunny 40 4.4 29 -1.7 65 65 WSW 8 13 30.31 1026 10 16 0.00 0.00
12:52 pm 12:52 Mostly Sunny 42 5.6 30 -1.1 62 62 W 9 15 30.28 1025 9 14 0.00 0.00
1:52 pm 13:52 Sunny 44 6.7 31 -0.6 60 60 WSW 7 11 30.27 1025 10 16 0.00 0.00
2:52 pm 14:52 Sunny 46 7.8 32 0 58 58 W 9 15 30.27 1025 10 16 0.00 0.00
3:52 pm 15:52 Mostly Sunny 46 7.8 32 0 58 58 W 8 13 30.28 1025 10 16 0.00 0.00
4:52 pm 16:52 Mostly Sunny 43 6.1 32 0 65 65 WNW 6 9 30.29 1026 9 14 0.00 0.00
5:52 pm 17:52 Mostly Clear 39 3.9 32 0 76 76 NNW 7 11 30.32 1027 9 14 0.00 0.00
6:52 pm 18:52 Mostly Cloudy 39 3.9 32 0 76 76 N 9 15 30.34 1027 8 13 0.00 0.00
7:52 pm 19:52 Mostly Clear 38 3.3 32 0 79 79 NE 5 7 30.34 1028 7 11 0.00 0.00
8:52 pm 20:52 Hazy 36 2.2 31 -0.6 82 82 NNE 5 7 30.36 1028 6 10 0.00 0.00
9:52 pm 21:52 Clear with Mist and Fog 35 1.7 31 -0.6 85 85 NNE 6 9 30.36 1028 6 10 0.00 0.00
10:52 pm 22:52 Hazy 36 2.2 31 -0.6 82 82 NE 9 15 30.36 1028 6 10 0.00 0.00
11:52 pm 23:52 Clear with Mist and Fog 35 1.7 31 -0.6 85 85 ENE 5 7 30.36 1028 6 10 0.00 0.00

Powered by AerisWeather